[[{"header":{"parameterUnit":"m.s-1","parameterCategory":1,"la1":30.2991,"la2":30.254,"lo1":-89.0895,"lo2":-89.0444,"dy":0.0017,"dx":0.0017,"nx":28,"ny":28,"refTime":"2025-04-08T21:00:00:Z","depth":0,"parameterNumber":2,"parameterNumberName":"U-component_of_WINDS"},"data":[0,0,0,0,0,0,0,0,0,0,0,0,0,0,0,0,0,0,0,0,0,0,0,0,0,0,0,0,0,0,0,0,0,0,0,0,0,0,0,0,0,0,0,0,0,0,0,0,0,0,0,0,0,0,0,0,0,0,2.0987,2.0986,0,2.0958,2.0957,2.0957,2.0896,2.0895,2.0894,2.0892,2.0864,2.0865,2.0865,0,0,0,0,0,0,0,0,0,0,0,0,0,2.0992,2.0992,2.0987,2.0986,2.0986,2.0958,2.0957,2.0957,2.0896,2.0895,2.0893,2.0892,2.0864,2.0865,2.0865,0,0,0,0,0,0,0,0,0,0,0,0,0,2.0979,2.0992,2.0987,2.0952,2.0949,2.0958,2.0957,2.0957,2.0897,2.0895,2.0893,2.0891,2.0864,2.0865,2.0865,2.0906,0,0,2.0867,2.0867,0,0,0,0,0,0,0,0,2.098,2.0979,2.0958,2.0955,2.0951,2.0928,2.0949,2.094,2.0897,2.0917,2.0892,2.089,2.0887,2.0886,2.0885,2.0905,2.0903,2.0867,2.0868,2.0868,2.0868,0,0,0,0,0,0,0,2.0981,2.098,2.0975,2.0958,2.0953,2.0939,2.0935,2.0947,2.0913,2.0915,2.091,2.0907,2.0885,2.0884,2.0883,2.0903,2.0867,2.0868,2.0868,2.0868,2.0955,2.0956,0,0,0,0,0,0,2.0987,2.0981,2.0976,2.0974,2.0961,2.094,2.0936,2.0938,2.0912,2.0907,2.0909,2.0905,2.0884,2.0883,2.0882,2.0927,2.0868,2.0868,2.0869,2.0953,2.0955,2.0957,0,0,0,0,0,0,2.0987,2.0987,2.0977,2.0976,2.0974,2.0942,2.0945,2.0938,2.0937,2.0908,2.0902,2.0914,2.0883,2.0881,2.09,2.0925,2.0869,2.0869,2.095,2.0953,2.0956,2.1018,0,0,0,0,0,0,2.0987,2.0987,2.1002,2.0977,2.0974,2.0995,2.0946,2.0939,2.0938,2.0932,2.0911,2.0906,2.0881,2.09,2.0901,2.0925,2.087,2.0948,2.0952,2.0955,2.1014,2.1023,2.1031,0,0,0,0,0,2.0988,2.1021,2.1003,2.1003,2.0992,2.0997,2.0995,2.0965,2.094,2.0955,2.0936,2.0907,2.0923,2.0902,2.0903,2.0928,2.0946,2.0951,2.0955,2.101,2.1021,2.1031,0,0,0,0,0,0,2.105,2.1017,2.0997,2.1023,2.1013,2.0987,2.1004,2.0978,2.0976,2.097,2.0934,2.093,2.0954,2.0943,2.092,2.0966,2.093,2.0935,2.0972,2.0982,2.099,2.0992,2.087,0,0,0,0,0,2.1067,2.1073,2.1044,2.107,2.1066,2.1036,2.1037,2.1015,2.1004,2.0999,2.0982,2.0973,2.0976,2.0979,2.098,2.1013,2.1007,2.103,2.1039,2.1046,2.105,2.1066,2.1076,2.0971,2.0971,2.0971,0,0,2.1101,2.1084,2.109,2.1082,2.1072,2.108,2.1033,2.1043,2.1049,2.1001,2.1017,2.1005,2.0992,2.1018,2.1029,2.101,2.1078,2.1052,2.1057,2.1058,2.1072,2.1082,2.109,2.0974,2.0974,2.0973,0,0,2.1168,2.1156,2.1176,2.1166,2.1151,2.1131,2.1136,2.1114,2.1103,2.1119,2.1083,2.109,2.1096,2.1088,2.1085,2.1149,2.1122,2.1151,2.1195,2.1211,2.1219,2.1226,2.1248,2.1257,2.1155,2.1156,2.1156,0,2.1213,2.1222,2.1189,2.1201,2.1199,2.1156,2.1176,2.1169,2.1156,2.1155,2.1134,2.114,2.1129,2.1152,2.1168,2.1167,2.1172,2.1152,2.122,2.1227,2.1233,2.1254,2.1263,2.1159,2.1159,2.1158,2.1158,0,2.1278,2.1285,2.1303,2.129,2.129,2.1306,2.1276,2.128,2.1258,2.1241,2.1257,2.1242,2.1239,2.1244,2.1223,2.1264,2.1252,2.1227,2.119,2.1247,2.1266,2.1274,2.1164,2.1163,2.1162,2.1161,0,0,2.1381,2.135,2.1358,2.1351,2.1332,2.1337,2.1352,2.1348,2.1352,2.1345,2.1356,2.1362,2.1338,2.1334,2.1312,2.1327,2.1378,2.1299,2.1298,2.1313,2.1421,2.144,2.145,2.136,2.1362,2.1363,2.1422,0,2.1443,2.1464,2.1436,2.1464,2.147,2.143,2.1443,2.1433,2.1417,2.1421,2.1404,2.1408,2.1377,2.1374,2.1387,2.1369,2.1399,2.1365,2.137,2.137,2.1373,2.146,2.1479,2.1536,2.1429,2.1431,2.1432,0,2.1516,2.1512,2.1541,2.1519,2.1521,2.1533,2.1527,2.1531,2.1519,2.1506,2.1503,2.1477,2.149,2.1455,2.1473,2.145,2.1451,2.1443,2.1444,2.1442,2.1403,2.1459,2.1553,2.1561,2.1443,2.1442,2.1441,0,2.1588,2.1589,2.1606,2.1602,2.1578,2.1587,2.1578,2.1564,2.1563,2.1559,2.1558,2.1556,2.1555,2.1554,2.1528,2.1505,2.1549,2.1512,2.1539,2.1539,2.1548,2.1548,2.1643,2.1552,2.1551,2.1551,2.1551,0,2.1658,2.1677,2.1638,2.1648,2.1668,2.1636,2.1657,2.1644,2.1632,2.1639,2.1606,2.1614,2.1579,2.1584,2.1564,2.1581,2.1581,2.1572,2.1566,2.1574,2.1575,2.1573,2.1567,2.1553,2.1553,2.1553,2.1552,0,2.174,2.1715,2.1731,2.1707,2.1701,2.1717,2.1696,2.1706,2.1688,2.1698,2.1699,2.1671,2.1675,2.1649,2.1648,2.1635,2.1661,2.1649,2.1665,2.166,2.1688,2.1685,2.1784,2.1795,2.1698,2.1699,2.17,0,2.1786,2.18,2.1777,2.1779,2.1771,2.1776,2.1775,2.1744,2.1745,2.1733,2.1743,2.1744,2.1742,2.175,2.173,2.173,2.1717,2.1751,2.1716,2.1724,2.1716,2.1715,2.1715,2.1758,2.1759,2.176,2.1761,0,2.187,2.1857,2.1857,2.1852,2.1852,2.1848,2.1841,2.1845,2.1812,2.1815,2.1817,2.1817,2.1815,2.1816,2.1812,2.1802,2.1776,2.1773,2.1778,2.1786,2.1794,2.1789,2.1683,2.177,2.1769,2.1769,2.1768,2.1768,2.1934,2.1944,2.193,2.1931,2.1923,2.1917,2.1924,2.1907,2.1909,2.1905,2.1887,2.1893,2.1881,2.1872,2.1865,2.187,2.1853,2.1862,2.1864,2.1866,2.1871,2.1795,2.1869,2.1869,2.1869,2.1868,2.1868,0,2.2015,2.2004,2.2005,2.1997,2.1998,2.1973,2.1965,2.1967,2.1973,2.1963,2.1963,2.1966,2.1967,2.1948,2.1946,2.1954,2.1942,2.1954,2.1953,2.1951,2.1886,2.1881,2.1964,2.1964,2.1964,2.1964,2.1964,2.1964,2.2057,2.2072,2.2058,2.2069,2.2057,2.2062,2.2059,2.2054,2.2047,2.2052,2.2052,2.2039,2.2026,2.2023,2.2023,2.2018,2.2018,2.2035,2.2025,2.1965,2.1955,2.1946,2.1941,2.2035,2.2035,2.2088,2.2089,2.2089]},{"header":{"parameterUnit":"m.s-1","parameterCategory":1,"la1":30.2991,"la2":30.254,"lo1":-89.0895,"lo2":-89.0444,"dy":0.0017,"dx":0.0017,"nx":28,"ny":28,"refTime":"2025-04-08T21:00:00:Z","depth":0,"parameterNumber":3,"parameterNumberName":"V-component_of_WINDS"},"data":[0,0,0,0,0,0,0,0,0,0,0,0,0,0,0,0,0,0,0,0,0,0,0,0,0,0,0,0,0,0,0,0,0,0,0,0,0,0,0,0,0,0,0,0,0,0,0,0,0,0,0,0,0,0,0,0,0,0,-3.8677,-3.868,0,-3.8922,-3.8925,-3.8928,-3.8915,-3.8911,-3.8908,-3.8904,-3.9158,-3.9167,-3.9177,0,0,0,0,0,0,0,0,0,0,0,0,0,-3.8202,-3.8211,-3.8677,-3.868,-3.8683,-3.8922,-3.8925,-3.8928,-3.8915,-3.8911,-3.8907,-3.8903,-3.9154,-3.9166,-3.9178,0,0,0,0,0,0,0,0,0,0,0,0,0,-3.8424,-3.8214,-3.8677,-3.8705,-3.871,-3.8921,-3.8925,-3.8929,-3.8916,-3.8911,-3.8906,-3.8901,-3.915,-3.9165,-3.918,-3.9378,0,0,-3.9226,-3.9232,0,0,0,0,0,0,0,0,-3.8411,-3.8441,-3.8698,-3.8704,-3.871,-3.8882,-3.885,-3.908,-3.8918,-3.8838,-3.8904,-3.8898,-3.9071,-3.9092,-3.9149,-3.939,-3.9401,-3.9227,-3.9236,-3.9243,-3.9247,0,0,0,0,0,0,0,-3.8396,-3.8431,-3.8774,-3.8702,-3.8709,-3.8707,-3.8733,-3.8894,-3.8981,-3.8845,-3.8844,-3.8873,-3.9073,-3.9135,-3.9155,-3.9405,-3.9227,-3.924,-3.9249,-3.9255,-3.9823,-3.9829,0,0,0,0,0,0,-3.8374,-3.8418,-3.8766,-3.8781,-3.8544,-3.872,-3.8749,-3.8832,-3.8979,-3.8997,-3.8878,-3.8872,-3.9112,-3.9138,-3.9164,-3.9408,-3.9243,-3.9257,-3.9265,-3.9817,-3.9825,-3.9831,0,0,0,0,0,0,-3.8364,-3.8405,-3.8756,-3.86,-3.8644,-3.8734,-3.8828,-3.884,-3.8902,-3.9004,-3.902,-3.8925,-3.9109,-3.9143,-3.9326,-3.9417,-3.9263,-3.9277,-3.981,-3.9819,-3.9828,-3.9896,0,0,0,0,0,0,-3.835,-3.8401,-3.8477,-3.8602,-3.8653,-3.8913,-3.8834,-3.8849,-3.8928,-3.8923,-3.9053,-3.9069,-3.9107,-3.9303,-3.9341,-3.9435,-3.9289,-3.9802,-3.9814,-3.9825,-3.9886,-3.9907,-3.9924,0,0,0,0,0,-3.8333,-3.8486,-3.8481,-3.8523,-3.8749,-3.8918,-3.8948,-3.8988,-3.8935,-3.9013,-3.9078,-3.9065,-3.94,-3.9322,-3.9364,-3.9464,-3.9797,-3.9811,-3.9824,-3.9878,-3.9903,-3.9923,0,0,0,0,0,0,-3.8371,-3.8503,-3.8498,-3.8696,-3.8796,-3.8916,-3.9015,-3.9012,-3.9129,-3.912,-3.9165,-3.9194,-3.9378,-3.9439,-3.9349,-3.9665,-3.9592,-3.9615,-3.9618,-3.9643,-3.9661,-3.9643,-3.9301,0,0,0,0,0,-3.8402,-3.8527,-3.8637,-3.8801,-3.8851,-3.8924,-3.9,-3.9022,-3.9127,-3.917,-3.9249,-3.9352,-3.9481,-3.9565,-3.9689,-3.9894,-3.9924,-3.9984,-4.0003,-4.0018,-4.0037,-4.0153,-4.0181,-3.9876,-3.9876,-3.9876,0,0,-3.8468,-3.8556,-3.8632,-3.8811,-3.8891,-3.9021,-3.896,-3.91,-3.9198,-3.9191,-3.9369,-3.943,-3.9549,-3.9745,-3.9835,-3.9801,-4.0128,-4.0035,-4.0046,-4.0058,-4.017,-4.0199,-4.0224,-3.9885,-3.9884,-3.9882,0,0,-3.8655,-3.8734,-3.888,-3.8961,-3.9083,-3.9131,-3.9166,-3.9287,-3.9327,-3.9506,-3.9504,-3.9621,-3.9842,-3.9927,-3.9999,-4.022,-4.0213,-4.0259,-4.0358,-4.047,-4.0494,-4.0516,-4.0597,-4.0625,-4.0278,-4.0278,-4.0279,0,-3.8723,-3.8918,-3.8956,-3.9098,-3.9177,-3.9176,-3.9326,-3.9403,-3.956,-3.9615,-3.9575,-3.9853,-3.9932,-4.0149,-4.0203,-4.026,-4.0304,-4.0245,-4.0488,-4.051,-4.053,-4.0608,-4.0638,-4.0283,-4.0283,-4.0282,-4.0282,0,-3.8996,-3.9131,-3.9235,-3.9386,-3.9477,-3.9622,-3.9683,-3.9771,-3.9785,-3.9837,-4.0021,-4.0116,-4.026,-4.0313,-4.0328,-4.0533,-4.0508,-4.0477,-4.0405,-4.0564,-4.0638,-4.0668,-4.029,-4.0289,-4.0287,-4.0286,0,0,-3.9214,-3.9384,-3.9422,-3.9491,-3.9626,-3.9732,-3.9877,-4.0018,-4.0093,-4.0201,-4.0326,-4.0513,-4.0486,-4.0568,-4.0592,-4.069,-4.0862,-4.0648,-4.0652,-4.0686,-4.1096,-4.1119,-4.1153,-4.0857,-4.0863,-4.0868,-4.1086,0,-3.9417,-3.9674,-3.9713,-3.9941,-4.0068,-4.0069,-4.0196,-4.0293,-4.0346,-4.0463,-4.0522,-4.0654,-4.0607,-4.0657,-4.0754,-4.0821,-4.0945,-4.0805,-4.0976,-4.0981,-4.0948,-4.1191,-4.1217,-4.1418,-4.1115,-4.112,-4.1124,0,-3.9688,-3.9803,-4.0043,-4.0162,-4.0217,-4.033,-4.0463,-4.0574,-4.0684,-4.0716,-4.0808,-4.0822,-4.0974,-4.0895,-4.1107,-4.1011,-4.1083,-4.1126,-4.1135,-4.1154,-4.1063,-4.1219,-4.1483,-4.1514,-4.1169,-4.1165,-4.1162,0,-3.9826,-4.0041,-4.0213,-4.0272,-4.0414,-4.0494,-4.0557,-4.0662,-4.0745,-4.0861,-4.0916,-4.1048,-4.1122,-4.1225,-4.1274,-4.1211,-4.1484,-4.1408,-4.1516,-4.1515,-4.1575,-4.1571,-4.1857,-4.1618,-4.1618,-4.1617,-4.1616,0,-4.005,-4.0197,-4.0277,-4.0383,-4.0549,-4.0592,-4.0755,-4.0816,-4.091,-4.1029,-4.1038,-4.115,-4.1207,-4.1328,-4.1368,-4.1539,-4.1571,-4.1603,-4.1612,-4.1603,-4.1599,-4.1652,-4.164,-4.1625,-4.1623,-4.1622,-4.162,0,-4.0233,-4.0292,-4.048,-4.0599,-4.0632,-4.0749,-4.0852,-4.0956,-4.1008,-4.1158,-4.1196,-4.1279,-4.1422,-4.1481,-4.1656,-4.1683,-4.188,-4.1877,-4.1842,-4.1846,-4.1952,-4.1942,-4.2283,-4.2331,-4.2059,-4.2061,-4.2063,0,-4.0372,-4.0486,-4.0617,-4.0697,-4.0763,-4.0891,-4.0976,-4.1023,-4.1111,-4.1246,-4.1334,-4.1477,-4.1593,-4.1822,-4.1898,-4.2033,-4.2035,-4.2145,-4.2055,-4.2044,-4.2039,-4.2033,-4.2045,-4.2162,-4.2165,-4.2167,-4.2169,0,-4.0615,-4.0639,-4.0759,-4.0891,-4.0992,-4.1098,-4.1202,-4.1267,-4.1331,-4.1429,-4.1575,-4.1665,-4.1844,-4.1987,-4.2126,-4.2192,-4.2193,-4.2196,-4.2229,-4.2223,-4.2199,-4.2215,-4.189,-4.2189,-4.2187,-4.2185,-4.2184,-4.2184,-4.0782,-4.0883,-4.0992,-4.1127,-4.121,-4.1307,-4.1411,-4.1476,-4.1598,-4.1747,-4.1768,-4.1925,-4.2034,-4.2221,-4.2293,-4.2417,-4.2389,-4.2436,-4.2448,-4.246,-4.2468,-4.2177,-4.2442,-4.2442,-4.2441,-4.2441,-4.2441,0,-4.1027,-4.1097,-4.122,-4.1365,-4.1472,-4.1461,-4.1576,-4.1666,-4.1804,-4.1905,-4.202,-4.2189,-4.2327,-4.2414,-4.2554,-4.2637,-4.2641,-4.2672,-4.2667,-4.2683,-4.2483,-4.2442,-4.2667,-4.2667,-4.2666,-4.2666,-4.2666,-4.2666,-4.1167,-4.1339,-4.1376,-4.1589,-4.1659,-4.1812,-4.1879,-4.1969,-4.205,-4.2238,-4.2353,-4.2408,-4.2505,-4.2652,-4.2779,-4.2801,-4.2853,-4.2887,-4.2908,-4.272,-4.2697,-4.2675,-4.2636,-4.2897,-4.2898,-4.3098,-4.3099,-4.3101]}]]